STARLINK-11255 [DTC]

Last updated on Sat Sep 28 2024 00:02:03 GMT+0000 (Coordinated Universal Time)

1 60730U 24152L 24271.52186452 .00000363 00000+0 78503-5 0 9998 2 60730 53.1613 199.6766 0000765 107.7292 252.3809 15.69713083 5891
UTC large
Height (km)
Speed (km/s)
/
Latitude / Longitude
Inclination (degrees)
Orbital Period (minutes)
Azimuth
Elevation
Range (km)
Doppler Factor

Next 0 passes for location: London (51.5072 / 0.1276)

Sorry there are no passes over London.